• In India
  • List of Countries
  • For 7 days
  • Water Temperature
  • Satellite Maps
  • Weather Map
  • Weather Widgets
  • user-avatar
    Login

    Hourly Weather Ischgl

    Today, 24 September, Sunday

    Time Temperature Precipitation Wind Pressure Humidity
    00:00 +2°C° 0.2 mm 1 mps 575 mmHg 94%
    01:00 +2°C° 0.2 mm 1 mps 575 mmHg 93%
    02:00 +2°C° 0.5 mm 1 mps 575 mmHg 93%
    03:00 +2°C° 0.5 mm 1 mps 575 mmHg 92%
    04:00 +2°C° 0.5 mm 1 mps 575 mmHg 91%
    05:00 +2°C° 0.3 mm 1 mps 575 mmHg 91%
    06:00 +2°C° 0.3 mm 1 mps 575 mmHg 90%
    07:00 +2°C° 0.3 mm 1 mps 575 mmHg 90%
    08:00 +3°C° 0.1 mm 1 mps 576 mmHg 85%
    09:00 +3°C° 0.1 mm 2 mps 577 mmHg 80%
    10:00 +4°C° 0.1 mm 2 mps 577 mmHg 75%
    11:00 +5°C° 0.1 mm 2 mps 577 mmHg 72%
    12:00 +6°C° 0.1 mm 2 mps 578 mmHg 68%
    13:00 +6°C° 0.1 mm 2 mps 578 mmHg 65%
    14:00 +6°C° 0.1 mm 2 mps 578 mmHg 66%
    15:00 +6°C° 0.1 mm 2 mps 577 mmHg 67%
    16:00 +5°C° 0.1 mm 2 mps 577 mmHg 68%
    17:00 +4°C° 0.1 mm 2 mps 576 mmHg 75%
    18:00 +3°C° 0.1 mm 1 mps 576 mmHg 83%
    19:00 +1°C° 0.1 mm 1 mps 575 mmHg 90%
    20:00 +1°C° 0 mm 1 mps 575 mmHg 91%
    21:00 +1°C° 0 mm 1 mps 575 mmHg 92%
    22:00 0°C° 0 mm 1 mps 575 mmHg 93%
    23:00 0°C° 0 mm 1 mps 575 mmHg 93%

    Tomorrow, 25 September, Monday

    Time Temperature Precipitation Wind Pressure Humidity
    00:00 -1°C° 0 mm 1 mps 574 mmHg 92%
    01:00 -1°C° 0 mm 1 mps 574 mmHg 92%
    02:00 -1°C° 0 mm 1 mps 574 mmHg 90%
    03:00 -1°C° 0 mm 1 mps 574 mmHg 89%
    04:00 -1°C° 0 mm 1 mps 574 mmHg 87%
    05:00 -1°C° 0 mm 1 mps 574 mmHg 84%
    06:00 0°C° 0 mm 1 mps 574 mmHg 81%
    07:00 0°C° 0 mm 1 mps 574 mmHg 78%
    08:00 +2°C° 0 mm 1 mps 575 mmHg 70%
    09:00 +4°C° 0 mm 1 mps 576 mmHg 62%
    10:00 +6°C° 0 mm 0 mps 577 mmHg 53%
    11:00 +8°C° 0 mm 1 mps 578 mmHg 51%
    12:00 +8°C° 0 mm 1 mps 578 mmHg 48%
    13:00 +9°C° 0 mm 1 mps 578 mmHg 46%
    14:00 +9°C° 0 mm 1 mps 578 mmHg 48%
    15:00 +8°C° 0 mm 1 mps 577 mmHg 51%
    16:00 +8°C° 0 mm 1 mps 577 mmHg 54%
    17:00 +6°C° 0 mm 1 mps 576 mmHg 64%
    18:00 +3°C° 0 mm 1 mps 575 mmHg 74%
    19:00 +1°C° 0 mm 1 mps 574 mmHg 84%
    20:00 +1°C° 0 mm 1 mps 575 mmHg 85%
    21:00 +1°C° 0 mm 1 mps 575 mmHg 86%
    22:00 0°C° 0 mm 1 mps 575 mmHg 87%
    23:00 0°C° 0 mm 1 mps 575 mmHg 87%

    Day after tomorrow, 26 September, Tuesday

    Time Temperature Precipitation Wind Pressure Humidity
    00:00 0°C° 0 mm 1 mps 575 mmHg 86%
    01:00 0°C° 0 mm 1 mps 575 mmHg 86%
    02:00 +1°C° 0 mm 1 mps 575 mmHg 86%
    03:00 +1°C° 0 mm 1 mps 575 mmHg 85%
    04:00 +1°C° 0 mm 1 mps 575 mmHg 85%
    05:00 +1°C° 0 mm 1 mps 576 mmHg 84%
    06:00 +1°C° 0 mm 1 mps 576 mmHg 84%
    07:00 +2°C° 0 mm 1 mps 576 mmHg 84%
    08:00 +4°C° 0 mm 1 mps 577 mmHg 76%
    09:00 +5°C° 0 mm 1 mps 578 mmHg 69%
    10:00 +7°C° 0 mm 1 mps 579 mmHg 62%
    11:00 +8°C° 0.1 mm 1 mps 579 mmHg 61%
    12:00 +8°C° 0.1 mm 1 mps 579 mmHg 60%
    13:00 +9°C° 0.1 mm 1 mps 580 mmHg 59%
    14:00 +8°C° 0.2 mm 1 mps 579 mmHg 62%
    15:00 +8°C° 0.2 mm 1 mps 579 mmHg 65%
    16:00 +8°C° 0.2 mm 1 mps 579 mmHg 68%
    17:00 +6°C° 0.1 mm 1 mps 578 mmHg 76%
    18:00 +4°C° 0.1 mm 1 mps 578 mmHg 83%
    19:00 +2°C° 0.1 mm 1 mps 577 mmHg 91%
    20:00 +2°C° 0 mm 1 mps 577 mmHg 91%
    21:00 +1°C° 0 mm 1 mps 577 mmHg 92%
    22:00 +1°C° 0 mm 1 mps 577 mmHg 92%
    23:00 +1°C° 0 mm 1 mps 577 mmHg 91%

    27 September, Wednesday

    Time Temperature Precipitation Wind Pressure Humidity
    00:00 +1°C° 0 mm 1 mps 577 mmHg 91%
    01:00 +1°C° 0 mm 1 mps 577 mmHg 90%
    02:00 +1°C° 0 mm 1 mps 577 mmHg 89%
    03:00 +1°C° 0 mm 1 mps 577 mmHg 89%
    04:00 0°C° 0 mm 1 mps 577 mmHg 88%
    05:00 +1°C° 0 mm 1 mps 577 mmHg 87%
    06:00 +1°C° 0 mm 1 mps 577 mmHg 86%
    07:00 +1°C° 0 mm 1 mps 578 mmHg 85%
    08:00 +4°C° 0 mm 1 mps 579 mmHg 76%
    09:00 +6°C° 0 mm 1 mps 580 mmHg 68%
    10:00 +8°C° 0 mm 1 mps 581 mmHg 60%
    11:00 +9°C° 0 mm 1 mps 581 mmHg 58%
    12:00 +10°C° 0 mm 1 mps 582 mmHg 56%
    13:00 +10°C° 0 mm 1 mps 582 mmHg 54%
    14:00 +10°C° 0 mm 1 mps 581 mmHg 57%
    15:00 +9°C° 0 mm 1 mps 581 mmHg 60%
    16:00 +9°C° 0 mm 1 mps 581 mmHg 63%
    17:00 +7°C° 0 mm 1 mps 580 mmHg 72%
    18:00 +5°C° 0 mm 1 mps 579 mmHg 81%
    19:00 +2°C° 0 mm 0 mps 578 mmHg 91%
    20:00 +2°C° 0 mm 1 mps 578 mmHg 90%
    21:00 +2°C° 0 mm 1 mps 579 mmHg 90%
    22:00 +2°C° 0 mm 1 mps 579 mmHg 90%
    23:00 +1°C° 0 mm 1 mps 579 mmHg 89%

    28 September, Thursday

    Time Temperature Precipitation Wind Pressure Humidity
    00:00 +1°C° 0 mm 1 mps 578 mmHg 88%
    01:00 +1°C° 0 mm 1 mps 578 mmHg 88%
    02:00 +1°C° 0 mm 1 mps 578 mmHg 88%
    03:00 +1°C° 0 mm 1 mps 578 mmHg 88%
    04:00 +1°C° 0 mm 1 mps 578 mmHg 88%
    05:00 +1°C° 0 mm 1 mps 579 mmHg 87%
    06:00 +2°C° 0 mm 1 mps 579 mmHg 86%
    07:00 +2°C° 0 mm 1 mps 580 mmHg 85%
    08:00 +4°C° 0 mm 1 mps 581 mmHg 76%
    09:00 +7°C° 0 mm 1 mps 582 mmHg 67%
    10:00 +9°C° 0 mm 1 mps 583 mmHg 58%
    11:00 +10°C° 0 mm 1 mps 583 mmHg 55%
    12:00 +10°C° 0 mm 1 mps 584 mmHg 52%
    13:00 +11°C° 0 mm 1 mps 584 mmHg 49%
    14:00 +11°C° 0 mm 1 mps 583 mmHg 53%
    15:00 +9°C° 0 mm 2 mps 583 mmHg 56%
    16:00 +9°C° 0 mm 2 mps 583 mmHg 59%
    17:00 +8°C° 0 mm 1 mps 582 mmHg 70%
    18:00 +6°C° 0 mm 1 mps 581 mmHg 80%
    19:00 +4°C° 0 mm 1 mps 580 mmHg 91%
    20:00 +3°C° 0 mm 1 mps 580 mmHg 91%
    21:00 +3°C° 0 mm 1 mps 580 mmHg 91%
    22:00 +2°C° 0 mm 1 mps 580 mmHg 91%
    23:00 +2°C° 0 mm 1 mps 580 mmHg 90%

    29 September, Friday

    Time Temperature Precipitation Wind Pressure Humidity
    00:00 +2°C° 0 mm 1 mps 580 mmHg 89%
    01:00 +2°C° 0 mm 1 mps 580 mmHg 88%
    02:00 +2°C° 0 mm 1 mps 579 mmHg 88%
    03:00 +1°C° 0 mm 1 mps 579 mmHg 87%
    04:00 +1°C° 0 mm 1 mps 579 mmHg 87%
    05:00 +2°C° 0 mm 1 mps 579 mmHg 84%
    06:00 +2°C° 0 mm 1 mps 579 mmHg 82%
    07:00 +2°C° 0 mm 1 mps 579 mmHg 80%
    08:00 +5°C° 0 mm 1 mps 580 mmHg 69%
    09:00 +7°C° 0 mm 1 mps 581 mmHg 59%
    10:00 +10°C° 0 mm 1 mps 583 mmHg 48%
    11:00 +11°C° 0 mm 1 mps 583 mmHg 46%
    12:00 +12°C° 0 mm 1 mps 583 mmHg 44%
    13:00 +12°C° 0 mm 1 mps 583 mmHg 42%
    14:00 +12°C° 0 mm 1 mps 582 mmHg 45%
    15:00 +11°C° 0 mm 1 mps 582 mmHg 49%
    16:00 +11°C° 0 mm 1 mps 581 mmHg 52%
    17:00 +8°C° 0 mm 1 mps 580 mmHg 64%
    18:00 +6°C° 0 mm 1 mps 579 mmHg 76%
    19:00 +2°C° 0 mm 0 mps 578 mmHg 88%
    20:00 +2°C° 0 mm 0 mps 578 mmHg 88%
    21:00 +3°C° 0 mm 1 mps 578 mmHg 88%
    22:00 +3°C° 0 mm 1 mps 578 mmHg 88%
    23:00 +3°C° 0 mm 1 mps 578 mmHg 88%
    Show more